TimeAKST,TemperatureF,Dew PointF,Humidity,Sea Level PressureIn,VisibilityMPH,Wind Direction,Wind SpeedMPH,Gust SpeedMPH,PrecipitationIn,Events,Conditions,WindDirDegrees,DateUTC
12:53 AM,-32.1,-9999,N/A,30.53,6.0,SW,6.9,-,N/A,,Haze,230,2013-01-17 09:53:00
1:53 AM,-31.0,-9999,N/A,30.53,4.0,WSW,9.2,-,N/A,,Haze,240,2013-01-17 10:53:00
3:03 AM,-29.2,-9999,N/A,30.52,2.0,West,10.4,-,N/A,,Mist,260,2013-01-17 12:03:00
3:22 AM,-29.2,-9999,N/A,30.52,3.0,WSW,11.5,-,N/A,,Mist,250,2013-01-17 12:22:00
3:53 AM,-29.0,-34.1,77,30.53,4.0,WSW,6.9,-,N/A,,Haze,240,2013-01-17 12:53:00
4:53 AM,-29.9,-9999,N/A,30.52,3.0,WSW,5.8,-,N/A,,Scattered Clouds,250,2013-01-17 13:53:00
5:53 AM,-33.0,-9999,N/A,30.53,3.0,SSW,5.8,-,N/A,,Clear,210,2013-01-17 14:53:00
6:14 AM,-34.6,-9999,N/A,30.53,4.0,SSW,4.6,-,N/A,,Haze,200,2013-01-17 15:14:00
6:53 AM,-34.1,-9999,N/A,30.53,7.0,SW,4.6,-,N/A,,Mostly Cloudy,230,2013-01-17 15:53:00
7:08 AM,-34.6,-9999,N/A,30.53,9.0,WSW,4.6,-,N/A,,Scattered Clouds,240,2013-01-17 16:08:00
7:53 AM,-35.0,-9999,N/A,30.54,10.0,SW,3.5,-,N/A,,Clear,230,2013-01-17 16:53:00
8:53 AM,-36.0,-9999,N/A,30.56,10.0,WSW,3.5,-,N/A,,Clear,240,2013-01-17 17:53:00
9:53 AM,-36.0,-9999,N/A,30.57,5.0,WNW,3.5,-,N/A,,Haze,290,2013-01-17 18:53:00
10:53 AM,-36.0,-9999,N/A,30.58,5.0,Calm,Calm,-,N/A,,Haze,0,2013-01-17 19:53:00
11:53 AM,-38.0,-9999,N/A,30.58,2.5,SSW,4.6,-,N/A,,Clear,200,2013-01-17 20:53:00
12:04 PM,-38.2,-9999,N/A,30.58,10.0,SSW,5.8,-,N/A,,Clear,210,2013-01-17 21:04:00
12:53 PM,-36.9,-9999,N/A,30.60,10.0,SW,6.9,-,N/A,,Clear,230,2013-01-17 21:53:00
1:53 PM,-36.9,-9999,N/A,30.61,4.0,SW,5.8,-,N/A,,Haze,230,2013-01-17 22:53:00
2:53 PM,-38.0,-9999,N/A,30.62,10.0,SW,6.9,-,N/A,,Clear,220,2013-01-17 23:53:00
3:16 PM,-38.2,-9999,N/A,30.61,2.5,SW,8.1,-,N/A,,Clear,220,2013-01-18 00:16:00
3:24 PM,-38.2,-9999,N/A,30.61,4.0,SSW,6.9,-,N/A,,Haze,210,2013-01-18 00:24:00
3:53 PM,-36.0,-9999,N/A,30.62,10.0,WSW,10.4,-,N/A,,Scattered Clouds,250,2013-01-18 00:53:00
4:53 PM,-34.1,-9999,N/A,30.63,5.0,SW,10.4,-,N/A,,Haze,230,2013-01-18 01:53:00
5:04 PM,-34.6,-9999,N/A,30.63,2.5,SW,8.1,-,N/A,,Overcast,230,2013-01-18 02:04:00
5:31 PM,-34.6,-9999,N/A,30.63,2.5,SW,11.5,-,N/A,,Partly Cloudy,230,2013-01-18 02:31:00
5:46 PM,-34.6,-9999,N/A,30.63,3.0,SW,11.5,-,N/A,,Clear,220,2013-01-18 02:46:00
5:53 PM,-35.0,-9999,N/A,30.63,4.0,SW,12.7,-,N/A,,Haze,220,2013-01-18 02:53:00
6:53 PM,-34.1,-9999,N/A,30.64,3.0,SW,13.8,-,N/A,,Mostly Cloudy,230,2013-01-18 03:53:00
7:03 PM,-34.6,-9999,N/A,30.64,2.5,SW,15.0,-,N/A,,Mostly Cloudy,230,2013-01-18 04:03:00
7:22 PM,-34.6,-9999,N/A,30.64,2.0,SW,13.8,-,N/A,,Scattered Clouds,230,2013-01-18 04:22:00
7:49 PM,-32.8,-9999,N/A,30.64,1.8,SW,13.8,-,N/A,,Mostly Cloudy,230,2013-01-18 04:49:00
7:53 PM,-33.0,-9999,N/A,30.65,1.8,SW,13.8,-,N/A,,Mostly Cloudy,230,2013-01-18 04:53:00
8:17 PM,-31.0,-9999,N/A,30.64,1.5,WSW,17.3,-,N/A,,Overcast,240,2013-01-18 05:17:00
8:53 PM,-31.0,-9999,N/A,30.65,1.2,WSW,18.4,-,N/A,,Mostly Cloudy,240,2013-01-18 05:53:00
9:02 PM,-31.0,-9999,N/A,30.64,1.2,WSW,18.4,-,N/A,,Scattered Clouds,240,2013-01-18 06:02:00
9:40 PM,-29.2,-9999,N/A,30.65,2.0,WSW,18.4,-,N/A,,Mostly Cloudy,240,2013-01-18 06:40:00
9:53 PM,-29.9,-9999,N/A,30.65,2.0,North,-9999.0,-,N/A,,Scattered Clouds,0,2013-01-18 06:53:00
10:53 PM,-29.9,-9999,N/A,30.66,3.0,North,-9999.0,-,N/A,,Partly Cloudy,0,2013-01-18 07:53:00
11:53 PM,-31.0,-9999,N/A,30.67,2.5,North,-9999.0,-,N/A,,Clear,0,2013-01-18 08:53:00